Location: Newark
(20.0000°S, 47.0000°E)
Time: 07:40:45
(UTC+00:00)

Tiangong 2 - Visible Passes

Search period start: 25 March 2019 00:00
Search period end: 04 April 2019 00:00
Orbit: 380 x 389 km, 42.8° (Epoch: 25 March)

Date Brightness Start Highest point End Pass type
(mag) Time Alt. Az. Time Alt. Az. Time Alt. Az.
30 Mar 4.3 01:56:19 10° NNE 01:57:14 11° NE 01:58:09 10° ENE visible
31 Mar 1.3 02:31:01 10° NW 02:34:11 72° NE 02:37:23 10° SE visible
01 Apr 3.0 01:33:42 22° NNE 01:34:43 26° NE 01:37:28 10° ESE visible
02 Apr 1.6 02:10:06 21° W 02:11:48 41° SW 02:14:52 10° SE visible
03 Apr 3.4 01:14:03 23° ESE 01:14:03 23° ESE 01:15:26 10° SE visible
